Regional Weather Roundup
Issued by NWS Albany, NY

Home | Current Version | Previous Version | Text Only | Print | Product List | Glossary On
Versions: 1 2 3 4 5 6 7 8 9 10 11 12 13 14 15 16 17 18 19 20 21 22 23 24 25 26 27 28 29 30 31 32 33 34 35 36 37 38 39 40 41 42 43 44 45 46
000
ASUS41 KALY 281510
RWRALY

NEW YORK STATE HOURLY WEATHER ROUNDUP
NATIONAL WEATHER SERVICE ALBANY NY
1000 AM EST SUN DEC 28 2014

NOTE: "FAIR" INDICATES FEW OR NO CLOUDS BELOW 12,000 FEET WITH NO
SIGNIFICANT WEATHER AND/OR NO OBSTRUCTIONS TO VISIBILITY.

NYZ032-033-038>043-046>054-057>066-NYZ062>081-281600-
EAST


CITY           SKY/WX    TMP DP  RH WIND       PRES   REMARKS
ALBANY         CLOUDY    45  38  76 W8        29.88R
GLENS FALLS    CLOUDY    44  41  89 S7        29.83R
POUGHKEEPSIE   CLOUDY    46  40  79 SW7       29.88R
NEWBURGH       PTSUNNY   45  41  87 SW6       29.89S
MONTGOMERY     CLOUDY    45  42  89 S6        29.87F
WHITE PLAINS   LGT RAIN  44  42  93 W6        29.89R FOG
ISLIP          LGT RAIN  45  42  89 SW9       29.89S
NEW YORK CITY  LGT RAIN  45  41  86 SW8       29.92R
CENTRAL PARK   LGT RAIN  46  40  79 VRB6      29.94R
$$

NYZ005>009-017-018-044>046-055-056-281600-
CENTRAL


CITY           SKY/WX    TMP DP  RH WIND       PRES   REMARKS
FULTON         CLOUDY    38  31  76 W15G22    29.95R WCI  29
SYRACUSE       LGT RAIN  38  34  85 NW17G25   29.95R WCI  28
ROME           LGT RAIN  39  37  92 W12       29.93R WCI  32
ELMIRA         CLOUDY    42  34  73 NW7       29.95R
BINGHAMTON     CLOUDY    38  35  89 NW9G18    29.91R WCI  31
MONTICELLO     CLOUDY    41  39  93 W6        29.87F
$$

NYZ026>034-041>043-281600-
NORTH


CITY           SKY/WX    TMP DP  RH WIND       PRES   REMARKS
WATERTOWN      CLOUDY    38  27  64 W16G22    29.92S WCI  29
FORT DRUM      NOT AVBL
MASSENA        CLOUDY    40  28  62 W13G23    29.86R WCI  32
SARANAC LAKE   CLOUDY    35  31  85 VRB6      29.79R WCI  30
PLATTSBURGH    CLOUDY    44  33  65 VRB6      29.79R
$$

NYZ001>004-010>016-019>021-281600-
WEST


CITY           SKY/WX    TMP DP  RH WIND       PRES   REMARKS
NIAGARA FALLS  CLOUDY    35  26  69 W15       30.01R WCI  25
BUFFALO        CLOUDY    35  27  72 W12       30.00R WCI  27
DUNKIRK        CLOUDY    36  28  73 NW10      30.04R WCI  28
JAMESTOWN      CLOUDY    34  30  86 W7        29.98S WCI  28
WELLSVILLE     CLOUDY    34  31  88 NW13      29.94R WCI  25
ROCHESTER      CLOUDY    37  28  70 NW12G22   29.98R WCI  29
PENN YAN       CLOUDY    40  32  73 W8        29.95R WCI  34
$$

             KEY
       WCI = WIND CHILL INDEX
       VSB = VISIBILITY
       HX  = HEAT INDEX
$$


USA.gov is the U.S. government's official web portal to all federal, state and local government web resources and services.